| time (UTC) | temp F | wind direction | speed MPH | gust MPH | rain 1hr in | rain 24hr in | rain mn in | humidity % | barometer mb |
| 20260505062318 | 52 | 0 | 0.0 | 0.0 | 5.64 | 0.00 | 0.00 | 78 | 1007.6 |
| 20260505061818 | 53 | 0 | 0.0 | 0.0 | 5.64 | 0.00 | 0.00 | 79 | 1007.7 |
| 20260505061317 | 53 | 0 | 0.0 | 0.0 | 5.64 | 0.00 | 0.00 | 79 | 1007.6 |
| 20260505060817 | 53 | 0 | 0.0 | 0.0 | 5.64 | 0.00 | 0.00 | 79 | 1007.7 |
| 20260505060318 | 53 | 0 | 0.0 | 0.0 | 5.64 | 0.00 | 0.00 | 78 | 1007.8 |
| 20260505055817 | 53 | 0 | 0.0 | 0.0 | 5.64 | 0.00 | 0.00 | 78 | 1007.8 |
| 20260505055317 | 52 | 0 | 0.0 | 0.0 | 5.64 | 0.00 | 0.00 | 78 | 1008.0 |
| 20260505054818 | 53 | 0 | 0.0 | 0.0 | 5.64 | 0.00 | 0.00 | 78 | 1007.9 |
| 20260505054317 | 53 | 0 | 0.0 | 0.0 | 5.64 | 0.00 | 0.00 | 78 | 1007.9 |
| 20260505053817 | 53 | 0 | 0.0 | 0.0 | 5.64 | 0.00 | 0.00 | 78 | 1008.1 |
| 20260505053317 | 53 | 0 | 0.0 | 0.0 | 5.64 | 0.00 | 0.00 | 78 | 1008.1 |
| 20260505052817 | 53 | 0 | 0.0 | 0.0 | 5.64 | 0.00 | 0.00 | 79 | 1008.1 |
| 20260505052319 | 53 | 0 | 0.0 | 0.0 | 5.64 | 0.00 | 0.00 | 80 | 1008.1 |
| 20260505051817 | 53 | 0 | 0.0 | 0.0 | 5.64 | 0.00 | 0.00 | 79 | 1008.1 |
| 20260505051318 | 53 | 58 | 17.0 | 23.0 | 5.64 | 0.00 | 0.00 | 81 | 1008.2 |
| 20260505050817 | 53 | 248 | 17.0 | 24.0 | 5.64 | 0.00 | 0.00 | 80 | 1008.1 |
| 20260505050319 | 53 | 224 | 19.0 | 24.0 | 5.64 | 0.00 | 0.00 | 81 | 1008.1 |
| 20260505041318 | 53 | 359 | 9.0 | 27.0 | 5.64 | 0.00 | 0.00 | 80 | 1008.0 |
| 20260505040818 | 53 | 359 | 6.0 | 23.0 | 5.64 | 0.00 | 0.00 | 78 | 1008.0 |
| 20260505040318 | 53 | 359 | 6.0 | 23.0 | 5.64 | 0.00 | 0.00 | 78 | 1008.1 |
| 20260505035818 | 53 | 359 | 2.0 | 20.0 | 5.64 | 0.00 | 0.00 | 76 | 1008.0 |
| 20260505035318 | 54 | 23 | 1.0 | 18.0 | 5.64 | 0.00 | 0.00 | 76 | 1008.1 |
| 20260505034818 | 53 | 359 | 4.0 | 18.0 | 5.64 | 0.00 | 0.00 | 74 | 1008.1 |
| 20260505034319 | 53 | 359 | 1.0 | 5.0 | 5.64 | 0.00 | 0.00 | 73 | 1008.1 |
| 20260505033818 | 54 | 359 | 1.0 | 3.0 | 5.64 | 0.00 | 0.00 | 73 | 1008.2 |
| 20260505033318 | 54 | 359 | 4.0 | 26.0 | 5.64 | 0.00 | 0.00 | 71 | 1008.3 |
| 20260505032818 | 54 | 359 | 7.0 | 21.0 | 5.64 | 0.00 | 0.00 | 71 | 1008.3 |
| 20260505032319 | 53 | 359 | 5.0 | 18.0 | 5.64 | 0.00 | 0.00 | 74 | 1008.2 |
| 20260505031818 | 52 | 17 | 12.0 | 32.0 | 5.64 | 0.00 | 0.00 | 78 | 1008.2 |
| 20260505031321 | 52 | 1 | 8.0 | 30.0 | 5.64 | 0.00 | 0.00 | 79 | 1008.1 |
| 20260505030818 | 53 | 41 | 5.0 | 22.0 | 5.64 | 0.00 | 0.00 | 77 | 1008.3 |
| 20260505030317 | 52 | 0 | 0.0 | 0.0 | 5.64 | 0.00 | 0.00 | 75 | 1008.4 |
| 20260505025818 | 53 | 0 | 0.0 | 0.0 | 5.64 | 0.00 | 0.00 | 74 | 1008.6 |
| 20260505025320 | 54 | 0 | 0.0 | 0.0 | 5.64 | 0.00 | 0.00 | 73 | 1008.6 |
| 20260505024818 | 54 | 0 | 0.0 | 0.0 | 5.64 | 0.00 | 0.00 | 72 | 1008.7 |
| 20260505024318 | 54 | 0 | 0.0 | 0.0 | 5.64 | 0.00 | 0.00 | 73 | 1008.7 |
| 20260505023818 | 54 | 0 | 0.0 | 0.0 | 5.64 | 0.00 | 0.00 | 73 | 1008.7 |
| 20260505023318 | 54 | 0 | 0.0 | 0.0 | 5.64 | 0.00 | 0.00 | 70 | 1008.8 |
| 20260505022818 | 54 | 0 | 0.0 | 0.0 | 5.64 | 0.00 | 0.00 | 70 | 1009.0 |
| 20260505022319 | 54 | 359 | 1.0 | 7.0 | 5.64 | 0.00 | 0.00 | 69 | 1009.0 |
| 20260505021818 | 54 | 0 | 0.0 | 0.0 | 5.64 | 0.00 | 0.00 | 69 | 1008.7 |
| 20260505021319 | 54 | 0 | 0.0 | 0.0 | 5.64 | 0.00 | 0.00 | 69 | 1008.7 |
| 20260505020818 | 54 | 0 | 0.0 | 0.0 | 5.64 | 0.00 | 0.00 | 68 | 1008.7 |
| 20260505020319 | 55 | 0 | 0.0 | 0.0 | 5.64 | 0.00 | 0.00 | 68 | 1008.6 |
| 20260505015818 | 55 | 0 | 0.0 | 0.0 | 5.64 | 0.00 | 0.00 | 67 | 1008.7 |
| 20260505015318 | 55 | 0 | 0.0 | 0.0 | 5.64 | 0.00 | 0.00 | 66 | 1008.7 |
| 20260505014818 | 55 | 0 | 0.0 | 0.0 | 5.64 | 0.00 | 0.00 | 65 | 1008.7 |
| 20260505014318 | 55 | 0 | 0.0 | 0.0 | 5.64 | 0.00 | 0.00 | 65 | 1008.7 |
| 20260505013818 | 55 | 0 | 0.0 | 0.0 | 5.64 | 0.00 | 0.00 | 65 | 1008.6 |
| 20260505013318 | 55 | 0 | 0.0 | 0.0 | 5.64 | 0.00 | 0.00 | 63 | 1008.5 |
| 20260505012818 | 55 | 0 | 0.0 | 0.0 | 5.64 | 0.00 | 0.00 | 63 | 1008.5 |
| 20260505012320 | 55 | 0 | 0.0 | 0.0 | 5.64 | 0.00 | 0.00 | 62 | 1008.6 |
| 20260505011818 | 55 | 0 | 0.0 | 0.0 | 5.64 | 0.00 | 0.00 | 62 | 1008.6 |
| 20260505011318 | 52 | 0 | 0.0 | 0.0 | 5.64 | 0.00 | 0.00 | 62 | 1008.6 |
| 20260505010818 | 52 | 0 | 0.0 | 0.0 | 5.64 | 0.00 | 0.00 | 61 | 1008.6 |
| 20260505010318 | 52 | 0 | 0.0 | 0.0 | 5.64 | 0.00 | 0.00 | 61 | 1008.6 |
| 20260505005818 | 52 | 0 | 0.0 | 0.0 | 5.64 | 0.00 | 0.00 | 60 | 1008.5 |
| 20260505005318 | 54 | 0 | 0.0 | 0.0 | 5.64 | 0.00 | 0.00 | 61 | 1008.6 |
| 20260505004818 | 55 | 0 | 0.0 | 0.0 | 5.64 | 0.00 | 0.00 | 60 | 1008.7 |
| 20260505004318 | 56 | 0 | 0.0 | 0.0 | 5.64 | 0.00 | 0.00 | 60 | 1008.7 |
| 20260505003818 | 56 | 0 | 0.0 | 0.0 | 5.64 | 0.00 | 0.00 | 59 | 1008.6 |
| 20260505003318 | 57 | 0 | 0.0 | 0.0 | 5.64 | 0.00 | 0.00 | 58 | 1008.6 |
| 20260505002818 | 57 | 359 | 1.0 | 5.0 | 5.64 | 0.00 | 0.00 | 58 | 1008.6 |
| 20260505002320 | 58 | 0 | 0.0 | 0.0 | 5.64 | 0.00 | 0.00 | 57 | 1008.5 |
| 20260505001818 | 58 | 0 | 0.0 | 0.0 | 5.64 | 0.00 | 0.00 | 57 | 1008.5 |
| 20260505001318 | 58 | 359 | 0.0 | 3.0 | 5.64 | 0.00 | 0.00 | 57 | 1008.6 |
| 20260505000818 | 58 | 0 | 0.0 | 0.0 | 5.64 | 0.00 | 0.00 | 56 | 1008.6 |
| 20260505000318 | 59 | 0 | 0.0 | 0.0 | 5.64 | 0.00 | 0.00 | 55 | 1008.7 |
| 20260504235818 | 59 | 0 | 0.0 | 0.0 | 5.64 | 0.00 | 0.00 | 56 | 1008.7 |
| 20260504235318 | 59 | 0 | 0.0 | 0.0 | 5.64 | 0.00 | 0.00 | 54 | 1009.0 |
| 20260504234818 | 59 | 0 | 0.0 | 0.0 | 5.64 | 0.00 | 0.00 | 53 | 1009.1 |
| 20260504234318 | 59 | 359 | 1.0 | 6.0 | 5.64 | 0.00 | 0.00 | 53 | 1009.1 |
| 20260504233818 | 60 | 359 | 8.0 | 22.0 | 5.64 | 0.00 | 0.00 | 52 | 1009.2 |
| 20260504233318 | 59 | 326 | 1.0 | 18.0 | 5.64 | 0.00 | 0.00 | 53 | 1009.3 |
| 20260504232818 | 59 | 359 | 1.0 | 7.0 | 5.64 | 0.00 | 0.00 | 53 | 1009.3 |
| 20260504232318 | 59 | 359 | 1.0 | 9.0 | 5.64 | 0.00 | 0.00 | 52 | 1009.5 |
| 20260504231818 | 60 | 359 | 1.0 | 6.0 | 5.64 | 0.00 | 0.00 | 51 | 1009.5 |
| 20260504231318 | 60 | 359 | 1.0 | 4.0 | 5.64 | 0.00 | 0.00 | 51 | 1009.7 |
| 20260504230818 | 59 | 359 | 2.0 | 19.0 | 5.64 | 0.00 | 0.00 | 48 | 1009.7 |
| 20260504230318 | 60 | 359 | 6.0 | 31.0 | 5.64 | 0.00 | 0.00 | 50 | 1009.8 |
| 20260504225819 | 60 | 359 | 4.0 | 21.0 | 5.64 | 0.00 | 0.00 | 47 | 1009.9 |
| 20260504225318 | 60 | 359 | 2.0 | 10.0 | 5.64 | 0.00 | 0.00 | 47 | 1009.9 |
| 20260504224818 | 60 | 359 | 1.0 | 7.0 | 5.64 | 0.00 | 0.00 | 48 | 1010.0 |
| 20260504224318 | 61 | 359 | 2.0 | 24.0 | 5.64 | 0.00 | 0.00 | 48 | 1010.0 |
| 20260504223818 | 61 | 359 | 6.0 | 32.0 | 5.64 | 0.00 | 0.00 | 47 | 1010.1 |
| 20260504223318 | 61 | 352 | 3.0 | 23.0 | 5.64 | 0.00 | 0.00 | 48 | 1010.2 |
| 20260504222818 | 61 | 359 | 4.0 | 23.0 | 5.64 | 0.00 | 0.00 | 48 | 1010.0 |
| 20260504222318 | 61 | 359 | 4.0 | 9.0 | 5.64 | 0.00 | 0.00 | 49 | 1010.1 |
| 20260504221818 | 61 | 359 | 13.0 | 38.0 | 5.64 | 0.00 | 0.00 | 47 | 1010.2 |
| 20260504221318 | 61 | 359 | 18.0 | 35.0 | 5.64 | 0.00 | 0.00 | 48 | 1010.3 |
| 20260504220818 | 61 | 319 | 20.0 | 32.0 | 5.64 | 0.00 | 0.00 | 50 | 1010.2 |
| 20260504220318 | 61 | 354 | 8.0 | 33.0 | 5.64 | 0.00 | 0.00 | 49 | 1010.2 |
| 20260504215818 | 61 | 359 | 5.0 | 32.0 | 5.64 | 0.00 | 0.00 | 49 | 1010.2 |
| 20260504215318 | 61 | 359 | 28.0 | 34.0 | 5.64 | 0.00 | 0.00 | 52 | 1010.3 |
| 20260504214818 | 61 | 359 | 11.0 | 33.0 | 5.64 | 0.00 | 0.00 | 49 | 1010.2 |
| 20260504214318 | 61 | 330 | 16.0 | 37.0 | 5.64 | 0.00 | 0.00 | 50 | 1010.1 |
| 20260504213818 | 61 | 253 | 8.0 | 34.0 | 5.64 | 0.00 | 0.00 | 51 | 1010.5 |
| 20260504213318 | 61 | 359 | 14.0 | 30.0 | 5.64 | 0.00 | 0.00 | 51 | 1010.5 |
| 20260504212818 | 61 | 359 | 9.0 | 29.0 | 5.64 | 0.00 | 0.00 | 51 | 1010.6 |
| 20260504212319 | 61 | 359 | 4.0 | 23.0 | 5.64 | 0.00 | 0.00 | 51 | 1010.7 |
| 20260504211819 | 61 | 338 | 9.0 | 27.0 | 5.64 | 0.00 | 0.00 | 51 | 1010.9 |
| 20260504211319 | 61 | 359 | 2.0 | 22.0 | 5.64 | 0.00 | 0.00 | 52 | 1010.7 |
| 20260504210819 | 61 | 359 | 6.0 | 27.0 | 5.64 | 0.00 | 0.00 | 51 | 1010.9 |
| 20260504210319 | 61 | 23 | 22.0 | 34.0 | 5.64 | 0.00 | 0.00 | 54 | 1010.7 |
| 20260504205819 | 61 | 345 | 18.0 | 28.0 | 5.64 | 0.00 | 0.00 | 52 | 1010.8 |
| 20260504205319 | 60 | 349 | 16.0 | 31.0 | 5.64 | 0.00 | 0.00 | 50 | 1010.9 |
| 20260504204819 | 61 | 359 | 8.0 | 30.0 | 5.64 | 0.00 | 0.00 | 51 | 1010.8 |
| 20260504204319 | 61 | 359 | 8.0 | 32.0 | 5.64 | 0.00 | 0.00 | 53 | 1011.0 |
| 20260504203819 | 61 | 359 | 6.0 | 31.0 | 5.64 | 0.00 | 0.00 | 54 | 1011.2 |
| 20260504203319 | 60 | 236 | 15.0 | 33.0 | 5.64 | 0.00 | 0.00 | 53 | 1011.0 |
| 20260504202820 | 60 | 359 | 5.0 | 33.0 | 5.64 | 0.00 | 0.00 | 52 | 1011.2 |
| 20260504202319 | 60 | 359 | 5.0 | 29.0 | 5.64 | 0.00 | 0.00 | 51 | 1011.3 |
| 20260504201819 | 60 | 359 | 11.0 | 28.0 | 5.64 | 0.00 | 0.00 | 50 | 1011.3 |
| 20260504201319 | 61 | 236 | 20.0 | 33.0 | 5.64 | 0.00 | 0.00 | 52 | 1011.4 |
| 20260504200820 | 61 | 359 | 1.0 | 7.0 | 5.64 | 0.00 | 0.00 | 50 | 1011.5 |
| 20260504200319 | 61 | 359 | 13.0 | 31.0 | 5.64 | 0.00 | 0.00 | 48 | 1011.8 |
| 20260504195819 | 61 | 359 | 8.0 | 29.0 | 5.64 | 0.00 | 0.00 | 50 | 1011.9 |
| 20260504195319 | 61 | 290 | 12.0 | 28.0 | 5.64 | 0.00 | 0.00 | 52 | 1011.8 |
| 20260504194819 | 61 | 359 | 3.0 | 1.0 | 5.64 | 0.00 | 0.00 | 53 | 1011.9 |
| 20260504194319 | 61 | 359 | 5.0 | 29.0 | 5.64 | 0.00 | 0.00 | 53 | 1011.9 |
| 20260504193819 | 60 | 359 | 12.0 | 32.0 | 5.64 | 0.00 | 0.00 | 54 | 1012.0 |
| 20260504193319 | 60 | 359 | 5.0 | 24.0 | 5.64 | 0.00 | 0.00 | 54 | 1012.0 |
| 20260504192819 | 60 | 257 | 11.0 | 33.0 | 5.64 | 0.00 | 0.00 | 53 | 1012.2 |
| 20260504192319 | 60 | 359 | 10.0 | 26.0 | 5.64 | 0.00 | 0.00 | 53 | 1012.4 |
| 20260504191819 | 60 | 359 | 18.0 | 29.0 | 5.64 | 0.00 | 0.00 | 52 | 1012.3 |
| 20260504191352 | 60 | 222 | 11.0 | 33.0 | 5.64 | 0.00 | 0.00 | 54 | 1012.3 |
| 20260504191319 | 60 | 222 | 11.0 | 33.0 | 5.64 | 0.00 | 0.00 | 54 | 1012.3 |
| 20260504190819 | 60 | 0 | 0.0 | 0.0 | 5.64 | 0.00 | 0.00 | 55 | 1012.4 |
| 20260504190319 | 60 | 0 | 0.0 | 0.0 | 5.64 | 0.00 | 0.00 | 53 | 1012.4 |
| 20260504185819 | 60 | 0 | 0.0 | 0.0 | 5.64 | 0.00 | 0.00 | 56 | 1012.4 |
| 20260504185319 | 60 | 359 | 2.0 | 26.0 | 5.64 | 0.00 | 0.00 | 55 | 1012.6 |
| 20260504184819 | 60 | 300 | 7.0 | 24.0 | 5.64 | 0.00 | 0.00 | 58 | 1012.7 |
| 20260504184319 | 59 | 359 | 1.0 | 9.0 | 5.64 | 0.00 | 0.00 | 57 | 1012.7 |
| 20260504183819 | 60 | 359 | 13.0 | 34.0 | 5.64 | 0.00 | 0.00 | 55 | 1012.8 |
| 20260504183319 | 60 | 235 | 9.0 | 27.0 | 5.64 | 0.00 | 0.00 | 55 | 1012.9 |
| 20260504182819 | 60 | 359 | 12.0 | 28.0 | 5.64 | 0.00 | 0.00 | 54 | 1012.9 |
| 20260504182319 | 60 | 308 | 14.0 | 30.0 | 5.64 | 0.00 | 0.00 | 55 | 1012.9 |
| 20260504181819 | 60 | 0 | 0.0 | 0.0 | 5.64 | 0.00 | 0.00 | 53 | 1013.0 |
| 20260504181319 | 60 | 0 | 0.0 | 0.0 | 5.64 | 0.00 | 0.00 | 57 | 1013.0 |
| 20260504180819 | 60 | 359 | 10.0 | 28.0 | 5.64 | 0.00 | 0.00 | 54 | 1013.0 |
| 20260504180319 | 60 | 79 | 14.0 | 30.0 | 5.64 | 0.00 | 0.00 | 55 | 1013.1 |
| 20260504175819 | 61 | 359 | 11.0 | 26.0 | 5.64 | 0.00 | 0.00 | 52 | 1013.2 |
| 20260504175319 | 60 | 359 | 10.0 | 29.0 | 5.64 | 0.00 | 0.00 | 54 | 1013.3 |
| 20260504174819 | 60 | 281 | 20.0 | 29.0 | 5.64 | 0.00 | 0.00 | 52 | 1013.4 |
| 20260504174319 | 60 | 359 | 12.0 | 31.0 | 5.64 | 0.00 | 0.00 | 53 | 1013.3 |
| 20260504173819 | 60 | 359 | 18.0 | 28.0 | 5.64 | 0.00 | 0.00 | 53 | 1013.6 |
| 20260504173319 | 60 | 229 | 27.0 | 35.0 | 5.64 | 0.00 | 0.00 | 54 | 1013.6 |
| 20260504172820 | 60 | 359 | 12.0 | 27.0 | 5.64 | 0.00 | 0.00 | 52 | 1013.8 |
| 20260504171319 | 59 | 221 | 20.0 | 29.0 | 5.64 | 0.00 | 0.00 | 58 | 1014.1 |
| 20260504170819 | 59 | 190 | 21.0 | 28.0 | 5.64 | 0.00 | 0.00 | 57 | 1014.1 |
| 20260504170319 | 59 | 222 | 22.0 | 26.0 | 5.64 | 0.00 | 0.00 | 57 | 1014.4 |
| 20260504160319 | 56 | 0 | 0.0 | 0.0 | 5.64 | 0.00 | 0.00 | 67 | 1015.4 |
| 20260504150819 | 54 | 0 | 0.0 | 0.0 | 5.64 | 0.00 | 0.00 | 71 | 1015.8 |
| 20260504150319 | 53 | 0 | 0.0 | 0.0 | 5.64 | 0.00 | 0.00 | 72 | 1015.9 |
| 20260504141320 | 50 | 0 | 0.0 | 0.0 | 5.64 | 0.00 | 0.00 | 78 | 1016.3 |
| 20260504140820 | 50 | 0 | 0.0 | 0.0 | 5.64 | 0.00 | 0.00 | 79 | 1016.4 |
| 20260504140320 | 50 | 0 | 0.0 | 0.0 | 5.64 | 0.00 | 0.00 | 79 | 1016.5 |
| 20260504130821 | 47 | 0 | 0.0 | 0.0 | 5.64 | 0.00 | 0.00 | 86 | 1017.2 |
| 20260504130321 | 47 | 0 | 0.0 | 0.0 | 5.64 | 0.00 | 0.00 | 86 | 1017.3 |
| 20260504110320 | 42 | 0 | 0.0 | 0.0 | 5.64 | 0.00 | 0.00 | 91 | 1017.4 |
| 20260504100320 | 42 | 0 | 0.0 | 0.0 | 5.64 | 0.00 | 0.00 | 86 | 1017.5 |
| 20260504081820 | 45 | 0 | 0.0 | 0.0 | 5.64 | 0.00 | 0.00 | 79 | 1017.6 |
| 20260504081320 | 45 | 0 | 0.0 | 0.0 | 5.64 | 0.00 | 0.00 | 79 | 1017.6 |
| 20260504080820 | 45 | 0 | 0.0 | 0.0 | 5.64 | 0.00 | 0.00 | 79 | 1017.6 |
| 20260504080320 | 45 | 0 | 0.0 | 0.0 | 5.64 | 0.00 | 0.00 | 78 | 1017.6 |
| 20260504070320 | 46 | 236 | 14.0 | 20.0 | 5.64 | 0.00 | 0.00 | 73 | 1017.9 |